Location: Newark
(15.4608°S, 41.1635°W)
Time: 09:35:24
(UTC+00:00)

Vanguard 3 - Pass Details

Date: 03 August 2021
Orbit: 510 x 3260 km, 33.3° (Epoch: 22 September)

Event Time Altitude Azimuth Distance (km) Brightness Sun altitude
Rises 08:34:21 0° 261° (W) 4,467 - -8.4°
Exits shadow 08:38:21 - 247° (WSW) 3,177 9.5 -7.5°
Reaches altitude 10° 08:39:11 10° 242° (WSW) 2,929 9.4 -7.3°
Maximum altitude 08:43:15 16° 205° (SSW) 2,061 8.9 -6.3°
Drops below altitude 10° 08:46:26 10° 165° (SSE) 2,170 9.4 -5.6°
Sets 08:49:15 0° 141° (SE) 2,851 10.3 -4.9°
